Current Version              Previous Version:    01  02  03  04  05  06  07  08  09  10  11  12  13  14  15  16  17  18  19  20  21  22  23  24  25  26  27  28  29  30  
   31  32  33  34  35  36  37  38  39  40  41  42  43  44  45  46  47  48  49  50  51  52  53  54  55  56  57  58  59  60  

[Printable]
731
ASUS44 KFWD 191703
RWRTX
NORTH TEXAS HOURLY WEATHER ROUNDUP
NATIONAL WEATHER SERVICE FORT WORTH TX
1200 PM CDT FRI SEP 19 2014

NOTE: "FAIR" INDICATES FEW OR NO CLOUDS BELOW 12,000 FEET WITH NO
SIGNIFICANT WEATHER AND/OR OBSTRUCTIONS TO VISIBILITY.

TXZ118-119-191800-
DALLAS/FORT WORTH METROPLEX

CITY           SKY/WX    TMP DP  RH WIND       PRES   REMARKS
DFW AIRPORT    PTSUNNY   80  68  66 E9        29.98S
DALLAS LOVE    PTSUNNY   79  68  69 SE10      29.98S
FTW MEACHAM    CLOUDY    77  69  76 E10       29.98S
DAL-EXECUTIVE  CLOUDY    77  69  76 SE7       29.98F
FTW-ALLIANCE   CLOUDY    78  68  71 SE8       29.98S
FTW-NAS-JRB    CLOUDY    80  67  64 S8        30.02S
FTW-SPINKS     CLOUDY    77  70  78 E6        30.00S FOG
ARLINGTON      CLOUDY    76  69  79 E7        29.99S
GRAND PRAIRIE  CLOUDY    75  68  78 MISG      30.00S
MESQUITE       CLOUDY    81  68  65 SE6       29.98F
LANCASTER      CLOUDY    76  69  77 CALM      29.99F
$$

TXZ091>094-102>105-117-120-121-131>134-191800-
NORTH CENTRAL TEXAS

CITY           SKY/WX    TMP DP  RH WIND       PRES   REMARKS
SHRMAN/DENISON MOSUNNY   82  69  66 E9        30.01S
GAINESVILLE    MOSUNNY   79  68  69 E10G17    30.01F
BOWIE          PTSUNNY   81  68  64 SE10      30.00S
BRIDGEPORT     CLOUDY    77  65  65 SE5       30.01R
DECATUR        PTSUNNY   78  65  66 SE10G16   30.00S
DENTON         CLOUDY    79  68  69 SE12      29.98F
MCKINNEY       PTSUNNY   81  68  64 SE8       29.99S
GREENVILLE     MOSUNNY   84  64  51 SE8G16    29.99S
ROCKWALL       MOSUNNY   82  70  66 E8        29.97F
TERRELL        PTSUNNY   83  69  62 SE7       29.98F
WAXAHACHIE     CLOUDY    77  69  77 E7        29.99F
CLEBURNE       CLOUDY    77  72  83 E8        30.00S
GRANBURY       CLOUDY    78  69  73 E5        30.00S
$$

TXZ083>090-098>101-113>116-127>130-139>142-154-155-191800-
WESTERN NORTH TEXAS

CITY           SKY/WX    TMP DP  RH WIND       PRES   REMARKS
WICHITA FALLS  MOSUNNY   81  68  64 SE13      29.98S
WF-KICKAPOO    MOSUNNY   82  65  56 SE8       30.00S
VERNON         MOSUNNY   83  68  60 SE7       30.00S
ABILENE        PTSUNNY   78  68  71 S6        30.02R
ABILENE-DYESS  CLOUDY    77  63  61 E5        30.00S
BRECKENRIDGE   CLOUDY    79  67  66 S5        29.99S
MINERAL WELLS  CLOUDY    76  66  71 SE13      29.98S
STEPHENVILLE   CLOUDY    76  66  71 E6        30.02S
COMANCHE       CLOUDY    79  68  69 E7        30.00S
BROWNWOOD      CLOUDY    77  70  78 E7        30.00R
COLEMAN        CLOUDY    74  67  79 SE3       30.01S
$$

TXZ143>147-156>162-174-175-191800-
CENTRAL TEXAS

CITY           SKY/WX    TMP DP  RH WIND       PRES   REMARKS
WACO           CLOUDY    78  72  81 E5        29.96F
WACO-TSTC      CLOUDY    77  72  83 E5        29.97S
WACO-MCGREGOR  CLOUDY    79  72  78 E8        29.97F
HILLSBORO      CLOUDY    77  72  83 SE7       29.98S
CORSICANA      PTSUNNY   82  70  66 E9        29.98S
MEXIA          CLOUDY    80  72  77 E8        29.96F
HEARNE         CLOUDY    79  73  81 E5        29.95F
CAMERON        CLOUDY    80  74  82 E5        29.94F
TEMPLE         CLOUDY    79  70  73 E7        29.96S
KILLEEN        CLOUDY    79  72  78 E8        29.99R
FORT HOOD      CLOUDY    78  73  84 NE8       29.97S
HAMILTON       CLOUDY    73  71  93 E7        30.01R
LAMPASAS       CLOUDY    76  74  93 E6        29.97S FOG
$$

TXZ095>097-106>112-122>126-135>138-148>153-164>167-191800-
EAST TEXAS

CITY           SKY/WX    TMP DP  RH WIND       PRES   REMARKS
PARIS          CLOUDY    75  66  73 E8        30.02S
SULPHUR SPRNGS PTSUNNY   80  70  70 E7        30.02S
MOUNT PLEASANT CLOUDY    76  72  87 E3        30.02S
GILMER         CLOUDY    77  73  88 CALM      30.02S
MINEOLA        PTSUNNY   82  72  69 SE5       30.00S
TYLER          PTSUNNY   83  69  62 E5        29.98F
LONGVIEW       PTSUNNY   83  71  67 E6        29.97F
MARSHALL       PTSUNNY   84  75  73 E5        30.01S HX  92
ATHENS         PTSUNNY   81  68  65 E7        29.97S
PALESTINE      CLOUDY    80  72  77 E8        29.99S
JACKSONVILLE   PTSUNNY   81  70  68 E8        30.01S
HENDERSON      PTSUNNY   82  70  66 NE3       29.99F
NACOGDOCHES    PTSUNNY   81  72  74 NE6       29.98F
LUFKIN         CLOUDY    82  73  74 NE6       29.96F
$$

SUPPLEMENTAL OBSERVATIONS (CENTRAL)

CITY           SKY/WX    TMP DP  RH WIND       PRES   REMARKS
$$

SUPPLEMENTAL OBSERVATIONS (WEST)

CITY           SKY/WX    TMP DP  RH WIND       PRES   REMARKS
$$

SUPPLEMENTAL OBSERVATIONS (EAST)

CITY           SKY/WX    TMP DP  RH WIND       PRES   REMARKS
$$

SUPPLEMENTAL OBSERVATIONS ARE A COLLECTION OF AUTOMATED INSTRUMENTS
THAT ARE MAINTAINED BY A VARIETY OF FEDERAL AND STATE AGENCIES.
CERTAIN ELEMENTS...SUCH AS HUMIDITY VALUES AND SUSTAINED WIND
SPEEDS...MAY BE APPROXIMATED.